Other Public Products
Issued by NWS Grand Forks, ND

Home | Current Version | Previous Version | Text Only | Print | Product List | Glossary Off
Versions: 1 2 3 4 5 6 7 8 9 10 11 12 13 14 15 16 17 18 19 20 21 22 23 24 25 26 27 28 29 30 31 32 33 34 35 36 37 38 39 40 41 42 43 44 45 46 47 48 49 50

000
FPUS83 KFGF 021231
OPUFGF
PRAIRIE TO PINES WEATHER ROUNDUP
NATIONAL WEATHER SERVICE EASTERN NORTH DAKOTA/GRAND FORKS ND
700 AM CDT WED SEP 02 2015

 **SATELLITE DATA USED TO AUGMENT SKY COVER AT AUTOMATED STATIONS**
 *****  WEATHER ACROSS EASTERN NORTH DAKOTA  *****

CITY           SKY/WX    TMP DP  RH WIND       PRES   REMARKS
GRAND FORKS    FOG       66  66 100 S9        29.82R VSB 1/4
6HR MIN TEMP:  63; 6HR MAX TEMP:  68;

GRAND FORKS AF FOG       68  66  94 S6        29.82S VSB 3/4
GRAND CITY NWS   N/A     64 N/A N/A S13         N/A
BUXTON         NOT AVBL
DEVILS LAKE    CLEAR     66  61  82 SE5       29.80R
6HR MIN TEMP:  66; 6HR MAX TEMP:  70;

FARGO          CLEAR     69  64  84 SE13      29.84R
6HR MIN TEMP:  69; 6HR MAX TEMP:  73;

WAHPETON ARPT  SUNNY     63  59  88 SE8       29.86S
$$

 *****  WEATHER ACROSS CENTRAL AND WESTERN NORTH DAKOTA  *****

CITY           SKY/WX    TMP DP  RH WIND       PRES   REMARKS
JAMESTOWN      CLEAR     63  61  93 SE7       29.82S FOG
6HR MIN TEMP:  63; 6HR MAX TEMP:  68;

BISMARCK       CLEAR     61  60  97 NE3       29.80S FOG
6HR MIN TEMP:  61; 6HR MAX TEMP:  71;

MINOT          FOG       60  59  96 SE6       29.79R VSB<1/4
6HR MIN TEMP:  59; 6HR MAX TEMP:  68;

MINOT AFB      CLEAR     55  55 100 CALM      29.77S FOG
6HR MIN TEMP:  56; 6HR MAX TEMP:  64;

GARRISON         N/A     58  57  97 CALM      29.80R
6HR MIN TEMP:  56; 6HR MAX TEMP:  68;

WILLISTON      CLEAR     56  45  66 NE3       29.77S
6HR MIN TEMP:  54; 6HR MAX TEMP:  64;

DICKINSON      CLEAR     56  51  84 E6        29.79S
6HR MIN TEMP:  56; 6HR MAX TEMP:  64;

HETTINGER      PTCLDY    47  45  93 W6        29.83R
6HR MIN TEMP:  47; 6HR MAX TEMP:  56;

$$

 *****  OTHER OBSERVATIONS NORTHEAST NORTH DAKOTA  *****

CITY           SKY/WX    TMP DP  RH WIND       PRES   REMARKS
WALHALLA       NOT AVBL
LANGDON        FAIR      66  64  94 S7        29.83R
CAVALIER       FAIR      63  59  88 S6        29.81S
GRAFTON        FOG       61  61 100 S7        29.82S VSB 1
CANDO          FOG       59  59 100 SE5       29.82R VSB<1/4
FORT TOTTEN      N/A     66  65  95 SE6       29.95
ROLLA          FAIR      61  61 100 S3        29.82S FOG
RUGBY          FAIR      63  63 100 SE5       29.80S FOG
 ***** THE ABOVE OBSERVATIONS ARE NON NWS ARE NOT QUALITY
        CONTROLLED AND MAY MIS-REPORT RAIN FOR SNOW...
$$

 *****  OTHER OBSERVATIONS SOUTHEAST NORTH DAKOTA *****

CITY           SKY/WX    TMP DP  RH WIND       PRES   REMARKS
COOPERSTOWN    NOT AVBL
VALLEY CITY    FAIR      64  64 100 SE5       29.83S FOG
OAKES          NOT AVBL
GWINNER          N/A     63  63 100 NE5       29.83R
SHEYENNE NWR     N/A     63  62  97 SE6       29.95S
BUFFALO        NOT AVBL
WYNDMERE         N/A     63  63 100 SE8         N/A
 ***** THE ABOVE OBSERVATIONS ARE NON NWS ARE NOT QUALITY
       CONTROLLED AND MAY MIS-REPORT RAIN FOR SNOW...
$$

  *****  WEATHER ACROSS NORTHERN MINNESOTA  *****

CITY           SKY/WX    TMP DP  RH WIND       PRES   REMARKS
FLAG ISLAND    MOCLDY    66  61  82 SE3       29.87S
WARROAD        CLEAR     61  57  88 SE3       29.88S
ROSEAU         CLEAR     63  57  82 SE3       29.86S
HALLOCK        CLEAR     66  64  94 SE10      29.82S
THF RVR FALLS  CLEAR     64  64 100 SE6       29.87R
6HR MIN TEMP:  61; 6HR MAX TEMP:  66;

HALSTAD        NOT AVBL
FOSSTON        CLEAR     66  63  88 SE6       29.89S FOG
BAUDETTE       CLEAR     60  55  83 SE6       29.90R
6HR MIN TEMP:  56; 6HR MAX TEMP:  61;

WASKISH        CLEAR     63  61  94 CALM      29.90S
CROOKSTON      CLEAR     70  66  88 S9        29.85S
$$
  *****  WEATHER ACROSS CENTRAL AND WEST MINNESOTA  *****

CITY           SKY/WX    TMP DP  RH WIND       PRES   REMARKS
BEMIDJI        FOG       62  62  99 CALM      29.91S VSB<1/4
PARK RAPIDS    FOG       66  65  96 SE6       29.92R VSB 1/4
6HR MIN TEMP:  65; 6HR MAX TEMP:  69;

WADENA         FOG       64  64 100 CALM      29.91S VSB 1/2
DETROIT LAKES  CLEAR     66  63  88 SE6       29.90S
MOORHEAD       CLEAR     66  63  88 SE7       29.86S
FERGUS FALLS   CLEAR     64  64 100 SE7       29.87S
ELBOW LAKE     PTSUNNY   64  63  94 SE7       29.89R
6HR MIN TEMP:  63; 6HR MAX TEMP:  70;

MORRIS MN      MOCLDY    64  63  94 SE7       29.87S
STAPLES        CLOUDY    66  64  94 CALM      29.92R FOG
WHEATON        CLEAR     57  57 100 E8        29.87S
$$
  *****  WEATHER ELSEWHERE ACROSS MINNESOTA  *****

CITY           SKY/WX    TMP DP  RH WIND       PRES   REMARKS
DULUTH         TSTM      67  65  93 SE14      29.97R FOG
6HR MIN TEMP:  67; 6HR MAX TEMP:  71; 6HR PCP:  0.19;

INTRNTL FALLS  CLEAR     60  56  86 SE5       29.92S
6HR MIN TEMP:  49; 6HR MAX TEMP:  60;

ELY            MOCLDY    57  55  94 SW5       29.99R
CLOQUET        CLOUDY    66  63  88 E7        29.97R
BRAINERD       MOCLDY    71  70  96 CALM      29.92S FOG
6HR MIN TEMP:  69; 6HR MAX TEMP:  74;

HIBBING        MOCLDY    65  62  90 NW3       29.94R
6HR MIN TEMP:  59; 6HR MAX TEMP:  66; 6HR PCP: TRACE;

ALEXANDRIA     PTCLDY    66  64  93 SE7       29.90S
6HR MIN TEMP:  65; 6HR MAX TEMP:  72;

SAINT CLOUD    MOCLDY    66  65  96 E7        29.91R FOG
6HR MIN TEMP:  66; 6HR MAX TEMP:  73; 6HR PCP:  0.09;

MINNEAPOLIS    CLOUDY    70  68  93 E8        29.91S
6HR MIN TEMP:  69; 6HR MAX TEMP:  78; 6HR PCP:  0.23;

$$

  *****  WEATHER ACROSS SOUTH DAKOTA  *****

CITY           SKY/WX    TMP DP  RH WIND       PRES   REMARKS
SIOUX FALLS    CLEAR     68  65  90 SE7       29.86S FOG
6HR MIN TEMP:  66; 6HR MAX TEMP:  74;

BROOKINGS      CLEAR     64  61  88 SE8       29.87S
WATERTOWN      CLEAR     66  64  93 SE7       29.84S
6HR MIN TEMP:  65; 6HR MAX TEMP:  69;

HURON          CLEAR     67  66  97 SE12      29.77F
6HR MIN TEMP:  67; 6HR MAX TEMP:  70;

SISSETON         N/A     63  62  97 S8        29.83S
ABERDEEN       FOG       60  58  92 CALM      29.81R VSB<1/4
6HR MIN TEMP:  61; 6HR MAX TEMP:  67;

MITCHELL       CLEAR     67  66  97 S6        29.81R
PIERRE         FOG       59  59 100 CALM      29.77R VSB 1/4
6HR MIN TEMP:  58; 6HR MAX TEMP:  71;

MOBRIDGE       PTCLDY    59  59 100 CALM      29.77S FOG
RAPID CITY     MOCLDY    58  48  69 NW6       29.84F
6HR MIN TEMP:  56; 6HR MAX TEMP:  63;

$$

  *****  SOME WEATHER IN NEARBY STATES *****

CITY           SKY/WX    TMP DP  RH WIND       PRES   REMARKS
GLASGOW MT     CLEAR     60  40  47 E16       29.67F
6HR MIN TEMP:  58; 6HR MAX TEMP:  63;

GREAT FALLS MT PTCLDY    53  33  46 SW7       29.72S
6HR MIN TEMP:  50; 6HR MAX TEMP:  68;

CHEYENNE WY    PTCLDY    65  40  39 W14       30.11S
6HR MIN TEMP:  58; 6HR MAX TEMP:  66;

SCOTTSBLUFF NE MOCLDY    56  51  84 NW7       29.97S
6HR MIN TEMP:  54; 6HR MAX TEMP:  63;

OMAHA NE       PTCLDY    73  68  84 SE14      29.91R
6HR MIN TEMP:  73; 6HR MAX TEMP:  78;

DES MOINES IA  CLOUDY    72  67  84 SE8       30.01R
6HR MIN TEMP:  71; 6HR MAX TEMP:  77; 6HR PCP:  0.16;

DAVENPORT IA   PTCLDY    71  67  87 SW6       30.06R
6HR MIN TEMP:  70; 6HR MAX TEMP:  75;

CHICAGO IL     PTCLDY    72  68  87 SW5       30.04R
6HR MIN TEMP:  72; 6HR MAX TEMP:  76;

EAU CLAIRE WI  LGT RAIN  73  70  90 CALM      29.93F
6HR MIN TEMP:  71; 6HR MAX TEMP:  74; 6HR PCP:  0.03;

LA CROSSE WI   CLOUDY    74  68  81 CALM      29.96S
6HR MIN TEMP:  74; 6HR MAX TEMP:  77;

$$

  *****  SOME NATIONAL WEATHER *****

CITY           SKY/WX    TMP DP  RH WIND       PRES   REMARKS



USA.gov is the U.S. government's official web portal to all federal, state and local government web resources and services.